N6OIM Weather Reports


Display with metric or nautical units.
time (UTC)temp
F
wind
direction
speed
MPH
gust
MPH
rain 1hr
in
rain 24hr
in
rain mn
in
humidity
%
barometer
mb
20260831030327 84 244 0.0 0.0 0.00 0.00 0.00 32 1008.0
20260831025818 84 244 0.0 0.0 0.00 0.00 0.00 31 1007.9
20260831025327 85 244 0.0 0.0 0.00 0.00 0.00 31 1007.9
20260831024835 86 244 0.0 0.0 0.00 0.00 0.00 31 1007.8
20260831024322 86 244 0.0 0.0 0.00 0.00 0.00 31 1007.8
20260831023819 87 244 0.0 0.0 0.00 0.00 0.00 30 1007.8
20260831023329 87 244 0.0 0.0 0.00 0.00 0.00 30 1007.6
20260831022817 88 244 0.0 0.0 0.00 0.00 0.00 30 1007.6
20260831022327 88 244 0.0 0.0 0.00 0.00 0.00 29 1007.6
20260831021835 89 244 0.0 0.0 0.00 0.00 0.00 29 1007.7
20260831021324 89 244 0.0 0.0 0.00 0.00 0.00 29 1007.6
20260831020836 90 244 0.0 0.0 0.00 0.00 0.00 28 1007.6
20260831020324 90 244 0.0 0.0 0.00 0.00 0.00 28 1007.7
20260831015836 91 244 0.0 0.0 0.00 0.00 0.00 27 1007.6
20260831015330 91 244 0.0 0.0 0.00 0.00 0.00 27 1007.6
20260831014817 91 244 0.0 0.0 0.00 0.00 0.00 27 1007.6
20260831014326 92 244 0.0 0.0 0.00 0.00 0.00 26 1007.7
20260831013835 92 244 0.0 0.0 0.00 0.00 0.00 26 1007.7
20260831013323 92 244 0.0 0.0 0.00 0.00 0.00 25 1007.7
20260831012831 93 244 0.0 0.0 0.00 0.00 0.00 25 1007.7
20260831012321 94 244 0.0 0.0 0.00 0.00 0.00 25 1007.7
20260831011829 94 244 0.0 0.0 0.00 0.00 0.00 24 1007.8
20260831011318 94 244 0.0 0.0 0.00 0.00 0.00 24 1007.8
20260831010834 94 244 0.0 0.0 0.00 0.00 0.00 24 1007.8
20260831010323 95 244 0.0 0.0 0.00 0.00 0.00 24 1007.8
20260831005831 95 244 0.0 0.0 0.00 0.00 0.00 23 1007.9
20260831005323 94 244 0.0 0.0 0.00 0.00 0.00 23 1007.9
20260831004830 94 244 0.0 0.0 0.00 0.00 0.00 24 1007.9
20260831004318 94 244 0.0 0.0 0.00 0.00 0.00 24 1007.9
20260831003827 95 244 0.0 0.0 0.00 0.00 0.00 23 1008.0
20260831003336 95 244 0.0 0.0 0.00 0.00 0.00 24 1008.0
20260831002823 95 244 0.0 0.0 0.00 0.00 0.00 23 1008.0
20260831002318 95 244 0.0 0.0 0.00 0.00 0.00 23 1008.0
20260831001828 95 244 0.0 0.0 0.00 0.00 0.00 24 1008.0
20260831001320 95 244 0.0 0.0 0.00 0.00 0.00 24 1007.9
20260831000831 95 244 0.0 0.0 0.00 0.00 0.00 24 1007.9
20260831000322 94 244 0.0 0.0 0.00 0.00 0.00 24 1008.1
20260830235830 94 244 0.0 0.0 0.00 0.00 0.00 23 1008.2
20260830235318 94 243 0.0 0.0 0.00 0.00 0.00 24 1008.2
20260830234826 94 243 0.0 0.0 0.00 0.00 0.00 23 1008.2
20260830234320 94 242 0.0 0.0 0.00 0.00 0.00 23 1008.2
20260830233829 94 243 0.0 0.0 0.00 0.00 0.00 23 1008.2
20260830233319 93 243 0.0 0.0 0.00 0.00 0.00 23 1008.4
20260830232827 93 242 0.0 0.0 0.00 0.00 0.00 23 1008.4
20260830232317 93 243 0.0 0.0 0.00 0.00 0.00 23 1008.4
20260830231825 93 244 0.0 0.0 0.00 0.00 0.00 23 1008.5
20260830231334 93 244 0.0 0.0 0.00 0.00 0.00 23 1008.5
20260830230822 93 248 0.0 0.0 0.00 0.00 0.00 24 1008.5
20260830230331 92 248 0.0 0.0 0.00 0.00 0.00 22 1008.5
20260830225825 92 248 0.0 0.0 0.00 0.00 0.00 23 1008.6
20260830225334 92 248 0.0 0.0 0.00 0.00 0.00 24 1008.7
20260830224821 92 248 0.0 0.0 0.00 0.00 0.00 23 1008.7
20260830224330 92 242 0.0 0.0 0.00 0.00 0.00 25 1008.9
20260830223817 92 238 0.0 0.0 0.00 0.00 0.00 25 1008.9
20260830223327 91 236 0.0 0.0 0.00 0.00 0.00 26 1008.9
20260830222818 91 197 0.0 0.0 0.00 0.00 0.00 28 1008.9
20260830222327 91 196 0.0 0.0 0.00 0.00 0.00 27 1009.0
20260830221818 91 246 0.0 0.0 0.00 0.00 0.00 27 1009.1
20260830221331 90 245 0.0 0.0 0.00 0.00 0.00 28 1009.2
20260830220819 90 246 0.0 0.0 0.00 0.00 0.00 29 1009.4
20260830220328 90 246 0.0 0.0 0.00 0.00 0.00 30 1009.4
20260830215817 90 248 0.0 0.0 0.00 0.00 0.00 28 1009.5
20260830215327 90 249 0.0 0.0 0.00 0.00 0.00 28 1009.7
20260830214836 89 249 0.0 0.0 0.00 0.00 0.00 29 1009.8
20260830214324 89 205 0.0 0.0 0.00 0.00 0.00 30 1009.7
20260830213835 89 205 0.0 0.0 0.00 0.00 0.00 31 1009.8
20260830213324 89 205 0.0 0.0 0.00 0.00 0.00 30 1009.8
20260830212820 88 199 0.0 0.0 0.00 0.00 0.00 32 1010.0
20260830212329 88 200 0.0 0.0 0.00 0.00 0.00 33 1010.2
20260830211817 88 200 0.0 0.0 0.00 0.00 0.00 32 1010.2
20260830211329 87 199 0.0 0.0 0.00 0.00 0.00 34 1010.2
20260830210822 87 199 0.0 0.0 0.00 0.00 0.00 34 1010.2
20260830210330 87 200 0.0 0.0 0.00 0.00 0.00 33 1010.2
20260830205820 86 199 0.0 0.0 0.00 0.00 0.00 35 1010.3
20260830205329 86 194 0.0 0.0 0.00 0.00 0.00 35 1010.2
20260830204825 86 194 0.0 0.0 0.00 0.00 0.00 36 1010.4
20260830204335 85 194 0.0 0.0 0.00 0.00 0.00 36 1010.4
20260830203823 85 196 0.0 0.0 0.00 0.00 0.00 35 1010.5
20260830203334 85 195 0.0 0.0 0.00 0.00 0.00 36 1010.6
20260830202821 85 194 0.0 0.0 0.00 0.00 0.00 37 1010.7
20260830202329 84 194 0.0 0.0 0.00 0.00 0.00 37 1010.6
20260830201821 84 194 0.0 0.0 0.00 0.00 0.00 37 1010.8
20260830201329 84 194 0.0 0.0 0.00 0.00 0.00 36 1010.9
20260830200817 83 194 0.0 0.0 0.00 0.00 0.00 37 1010.8
20260830200330 83 194 0.0 0.0 0.00 0.00 0.00 39 1010.8
20260830195818 83 194 0.0 0.0 0.00 0.00 0.00 40 1010.9
20260830195329 83 194 0.0 0.0 0.00 0.00 0.00 39 1010.8
20260830194820 82 194 0.0 0.0 0.00 0.00 0.00 40 1010.7
20260830194330 82 194 0.0 0.0 0.00 0.00 0.00 42 1010.7
20260830193818 82 194 0.0 0.0 0.00 0.00 0.00 40 1010.8
20260830193331 81 187 0.0 0.0 0.00 0.00 0.00 41 1010.8
20260830192818 81 186 0.0 0.0 0.00 0.00 0.00 41 1011.0
20260830192327 81 186 0.0 0.0 0.00 0.00 0.00 42 1011.1
20260830191821 81 186 0.0 0.0 0.00 0.00 0.00 42 1011.0
20260830191329 80 183 0.0 0.0 0.00 0.00 0.00 42 1011.1
20260830190821 80 183 0.0 0.0 0.00 0.00 0.00 42 1011.2
20260830190330 80 182 0.0 0.0 0.00 0.00 0.00 43 1011.4
20260830185818 79 177 0.0 0.0 0.00 0.00 0.00 43 1011.3
20260830185327 79 176 0.0 0.0 0.00 0.00 0.00 43 1011.4
20260830184835 78 175 0.0 0.0 0.00 0.00 0.00 43 1011.4
20260830184324 78 175 0.0 0.0 0.00 0.00 0.00 43 1011.4
20260830183817 78 131 0.0 0.0 0.00 0.00 0.00 44 1011.5
20260830183327 78 130 0.0 0.0 0.00 0.00 0.00 44 1011.6
20260830182816 77 131 0.0 0.0 0.00 0.00 0.00 44 1011.6
20260830182326 77 129 0.0 0.0 0.00 0.00 0.00 45 1011.6
20260830181818 77 182 0.0 0.0 0.00 0.00 0.00 45 1011.7
20260830181326 76 182 0.0 0.0 0.00 0.00 0.00 46 1011.7
20260830180835 76 182 0.0 0.0 0.00 0.00 0.00 46 1011.6
20260830180325 76 200 0.0 0.0 0.00 0.00 0.00 46 1011.7
20260830175834 75 160 0.0 0.0 0.00 0.00 0.00 47 1011.8
20260830175327 75 232 0.0 0.0 0.00 0.00 0.00 48 1011.9
20260830174835 75 232 0.0 0.0 0.00 0.00 0.00 48 1011.8
20260830174325 74 227 0.0 0.0 0.00 0.00 0.00 49 1011.9
20260830173833 74 228 0.0 0.0 0.00 0.00 0.00 49 1011.9
20260830173322 73 240 0.0 0.0 0.00 0.00 0.00 49 1012.0
20260830172830 73 240 0.0 0.0 0.00 0.00 0.00 50 1012.0
20260830172318 73 132 0.0 0.0 0.00 0.00 0.00 50 1011.8
20260830171830 73 130 0.0 0.0 0.00 0.00 0.00 50 1012.0
20260830171319 73 128 0.0 0.0 0.00 0.00 0.00 51 1012.0
20260830170833 72 125 0.0 0.0 0.00 0.00 0.00 52 1012.0
20260830170322 72 126 0.0 0.0 0.00 0.00 0.00 52 1012.0
20260830165830 71 125 0.0 0.0 0.00 0.00 0.00 53 1012.0
20260830165318 71 126 0.0 0.0 0.00 0.00 0.00 53 1012.1
20260830164826 71 126 0.0 0.0 0.00 0.00 0.00 54 1012.1
20260830164334 70 125 0.0 0.0 0.00 0.00 0.00 55 1012.1
20260830163822 70 126 0.0 0.0 0.00 0.00 0.00 56 1012.0
20260830163335 69 157 0.0 0.0 0.00 0.00 0.00 58 1012.1
20260830162822 68 157 0.0 0.0 0.00 0.00 0.00 59 1012.0
20260830162335 68 157 0.0 0.0 0.00 0.00 0.00 60 1012.0
20260830161823 68 157 0.0 0.0 0.00 0.00 0.00 60 1011.9
20260830161313 68 157 0.0 0.0 0.00 0.00 0.00 60 1012.0
20260830160824 68 150 0.0 0.0 0.00 0.00 0.00 61 1012.0
20260830160332 67 149 0.0 0.0 0.00 0.00 0.00 61 1012.0
20260830155822 67 149 0.0 0.0 0.00 0.00 0.00 62 1011.9
20260830155333 67 160 0.0 0.0 0.00 0.00 0.00 62 1011.9
20260830154822 66 167 0.0 0.0 0.00 0.00 0.00 63 1012.0
20260830154331 66 173 0.0 0.0 0.00 0.00 0.00 65 1012.0
20260830153824 65 174 0.0 0.0 0.00 0.00 0.00 66 1012.1
20260830153334 65 173 0.0 0.0 0.00 0.00 0.00 67 1012.0
20260830152822 65 175 0.0 0.0 0.00 0.00 0.00 67 1011.9
20260830152331 64 176 0.0 0.0 0.00 0.00 0.00 68 1011.9
20260830151819 64 176 0.0 0.0 0.00 0.00 0.00 69 1011.9
20260830151329 63 176 0.0 0.0 0.00 0.00 0.00 69 1011.9
20260830150821 63 176 0.0 0.0 0.00 0.00 0.00 70 1012.0
20260830150330 62 176 0.0 0.0 0.00 0.00 0.00 71 1012.0
20260830145821 61 156 0.0 0.0 0.00 0.00 0.00 73 1011.9
20260830145330 61 156 0.0 0.0 0.00 0.00 0.00 75 1012.0
20260830144822 60 156 0.0 0.0 0.00 0.00 0.00 77 1012.0
20260830144330 59 156 0.0 0.0 0.00 0.00 0.00 78 1012.0
20260830143819 58 156 0.0 0.0 0.00 0.00 0.00 79 1011.9
20260830143328 57 156 0.0 0.0 0.00 0.00 0.00 79 1011.8
20260830142816 57 156 0.0 0.0 0.00 0.00 0.00 79 1011.8
20260830142328 57 156 0.0 0.0 0.00 0.00 0.00 79 1011.7
20260830141817 56 156 0.0 0.0 0.00 0.00 0.00 78 1011.6
20260830141335 56 156 0.0 0.0 0.00 0.00 0.00 78 1011.6
20260830140823 56 156 0.0 0.0 0.00 0.00 0.00 77 1011.4
20260830140333 56 156 0.0 0.0 0.00 0.00 0.00 76 1011.4
20260830135819 56 156 0.0 0.0 0.00 0.00 0.00 76 1011.4
20260830135328 56 156 0.0 0.0 0.00 0.00 0.00 76 1011.3
20260830134817 56 156 0.0 0.0 0.00 0.00 0.00 76 1011.3
20260830134329 56 156 0.0 0.0 0.00 0.00 0.00 75 1011.3
20260830133817 56 156 0.0 0.0 0.00 0.00 0.00 74 1011.1
20260830133327 56 156 0.0 0.0 0.00 0.00 0.00 74 1011.0
20260830132820 56 156 0.0 0.0 0.00 0.00 0.00 73 1011.0
20260830132329 57 156 0.0 0.0 0.00 0.00 0.00 72 1011.0
20260830131818 57 156 0.0 0.0 0.00 0.00 0.00 72 1011.0
20260830131327 57 156 0.0 0.0 0.00 0.00 0.00 73 1011.0
20260830130815 57 156 0.0 0.0 0.00 0.00 0.00 72 1010.9
20260830130328 57 156 0.0 0.0 0.00 0.00 0.00 72 1010.9
20260830125835 57 156 0.0 0.0 0.00 0.00 0.00 71 1010.9
20260830125323 57 156 0.0 0.0 0.00 0.00 0.00 71 1010.8
20260830124819 57 156 0.0 0.0 0.00 0.00 0.00 70 1010.8
20260830124331 58 156 0.0 0.0 0.00 0.00 0.00 70 1010.7
20260830123821 58 156 0.0 0.0 0.00 0.00 0.00 70 1010.6
20260830123330 58 156 0.0 0.0 0.00 0.00 0.00 69 1010.6
20260830122822 58 156 0.0 0.0 0.00 0.00 0.00 69 1010.6
20260830122331 58 156 0.0 0.0 0.00 0.00 0.00 68 1010.6
20260830121823 58 156 0.0 0.0 0.00 0.00 0.00 67 1010.5
20260830121332 59 156 0.0 0.0 0.00 0.00 0.00 67 1010.6
20260830120822 59 156 0.0 0.0 0.00 0.00 0.00 67 1010.6
20260830120336 59 156 0.0 0.0 0.00 0.00 0.00 66 1010.6
20260830115825 60 156 0.0 0.0 0.00 0.00 0.00 66 1010.6
20260830115335 60 156 0.0 0.0 0.00 0.00 0.00 66 1010.6
20260830114822 60 156 0.0 0.0 0.00 0.00 0.00 66 1010.6
20260830114331 60 156 0.0 0.0 0.00 0.00 0.00 65 1010.7
20260830113822 60 156 0.0 0.0 0.00 0.00 0.00 65 1010.8
20260830113330 61 156 0.0 0.0 0.00 0.00 0.00 65 1010.8
20260830112822 61 156 0.0 0.0 0.00 0.00 0.00 64 1010.8
20260830112319 61 156 0.0 0.0 0.00 0.00 0.00 64 1010.7
20260830111828 61 156 0.0 0.0 0.00 0.00 0.00 64 1010.7
20260830111317 61 156 0.0 0.0 0.00 0.00 0.00 64 1010.6
20260830110829 62 156 0.0 0.0 0.00 0.00 0.00 64 1010.6
20260830110320 62 156 0.0 0.0 0.00 0.00 0.00 64 1010.6
20260830105828 62 156 0.0 0.0 0.00 0.00 0.00 63 1010.6
20260830105317 62 156 0.0 0.0 0.00 0.00 0.00 63 1010.6
20260830104825 62 156 0.0 0.0 0.00 0.00 0.00 63 1010.6
20260830104334 62 156 0.0 0.0 0.00 0.00 0.00 64 1010.5
20260830103826 62 156 0.0 0.0 0.00 0.00 0.00 64 1010.5
20260830103318 63 156 0.0 0.0 0.00 0.00 0.00 64 1010.4
20260830102826 63 156 0.0 0.0 0.00 0.00 0.00 64 1010.4
20260830102318 63 156 0.0 0.0 0.00 0.00 0.00 64 1010.4
20260830101827 63 156 0.0 0.0 0.00 0.00 0.00 64 1010.4
20260830101336 63 156 0.0 0.0 0.00 0.00 0.00 64 1010.4
20260830100824 63 156 0.0 0.0 0.00 0.00 0.00 63 1010.4
20260830100333 63 156 0.0 0.0 0.00 0.00 0.00 63 1010.5
20260830095824 63 156 0.0 0.0 0.00 0.00 0.00 63 1010.6
20260830095318 63 156 0.0 0.0 0.00 0.00 0.00 63 1010.6
20260830094830 63 156 0.0 0.0 0.00 0.00 0.00 63 1010.6
20260830094322 63 156 0.0 0.0 0.00 0.00 0.00 63 1010.5
20260830093830 63 156 0.0 0.0 0.00 0.00 0.00 62 1010.4
20260830093319 63 156 0.0 0.0 0.00 0.00 0.00 62 1010.2
20260830092827 64 156 0.0 0.0 0.00 0.00 0.00 61 1010.3
20260830092316 64 156 0.0 0.0 0.00 0.00 0.00 61 1010.3
20260830091829 64 156 0.0 0.0 0.00 0.00 0.00 61 1010.3
20260830091321 64 156 0.0 0.0 0.00 0.00 0.00 60 1010.4
20260830090830 64 156 0.0 0.0 0.00 0.00 0.00 60 1010.5
20260830090322 64 156 0.0 0.0 0.00 0.00 0.00 60 1010.4
20260830085830 65 156 0.0 0.0 0.00 0.00 0.00 59 1010.4
20260830085322 65 156 0.0 0.0 0.00 0.00 0.00 59 1010.6
20260830084830 65 156 0.0 0.0 0.00 0.00 0.00 59 1010.6
20260830084323 65 156 0.0 0.0 0.00 0.00 0.00 60 1010.4
20260830083832 65 156 0.0 0.0 0.00 0.00 0.00 59 1010.4
20260830083321 65 156 0.0 0.0 0.00 0.00 0.00 59 1010.4
20260830082835 65 156 0.0 0.0 0.00 0.00 0.00 59 1010.4
20260830082323 65 156 0.0 0.0 0.00 0.00 0.00 59 1010.3
20260830081836 65 156 0.0 0.0 0.00 0.00 0.00 59 1010.4
20260830081324 66 156 0.0 0.0 0.00 0.00 0.00 59 1010.4
20260830080835 66 156 0.0 0.0 0.00 0.00 0.00 58 1010.4
20260830080326 66 156 0.0 0.0 0.00 0.00 0.00 58 1010.4
20260830075834 66 156 0.0 0.0 0.00 0.00 0.00 57 1010.6
20260830075322 66 156 0.0 0.0 0.00 0.00 0.00 57 1010.5
20260830074818 66 156 0.0 0.0 0.00 0.00 0.00 56 1010.4
20260830074327 67 156 0.0 0.0 0.00 0.00 0.00 56 1010.4
20260830073816 67 156 0.0 0.0 0.00 0.00 0.00 56 1010.5
20260830073326 67 156 0.0 0.0 0.00 0.00 0.00 56 1010.5
20260830072816 67 156 0.0 0.0 0.00 0.00 0.00 56 1010.4
20260830072329 67 156 0.0 0.0 0.00 0.00 0.00 55 1010.6
20260830071821 68 156 0.0 0.0 0.00 0.00 0.00 55 1010.6
20260830071313 68 156 0.0 0.0 0.00 0.00 0.00 55 1010.5
20260830070826 68 156 0.0 0.0 0.00 0.00 0.00 55 1010.5
20260830070319 68 156 0.0 0.0 0.00 0.00 0.00 55 1010.5
20260830065829 68 156 0.0 0.0 0.00 0.00 0.00 55 1010.5
20260830065321 68 156 0.0 0.0 0.00 0.00 0.00 54 1010.5
20260830064828 69 156 0.0 0.0 0.00 0.00 0.00 54 1010.6
20260830064320 69 156 0.0 0.0 0.00 0.00 0.00 54 1010.7
20260830063831 69 156 0.0 0.0 0.00 0.00 0.00 53 1010.7
20260830063320 69 156 0.0 0.0 0.00 0.00 0.00 53 1010.6
20260830062829 69 156 0.0 0.0 0.00 0.00 0.00 53 1010.7
20260830062323 69 156 0.0 0.0 0.00 0.00 0.00 53 1010.7
20260830061815 69 156 0.0 0.0 0.00 0.00 0.00 53 1010.7
20260830061328 70 156 0.0 0.0 0.00 0.00 0.00 52 1010.5
20260830060816 70 156 0.0 0.0 0.00 0.00 0.00 52 1010.5
20260830060329 70 156 0.0 0.0 0.00 0.00 0.00 51 1010.6
20260830055821 70 156 0.0 0.0 0.00 0.00 0.00 51 1010.7
20260830055331 71 156 0.0 0.0 0.00 0.00 0.00 50 1010.6
20260830054819 71 148 0.0 0.0 0.00 0.00 0.00 49 1010.6
20260830054328 71 148 0.0 0.0 0.00 0.00 0.00 49 1010.7
20260830053821 71 148 0.0 0.0 0.00 0.00 0.00 49 1010.7
20260830053330 72 148 0.0 0.0 0.00 0.00 0.00 48 1010.6
20260830052818 72 148 0.0 0.0 0.00 0.00 0.00 48 1010.5
20260830052330 72 148 0.0 0.0 0.00 0.00 0.00 47 1010.6
20260830051821 72 148 0.0 0.0 0.00 0.00 0.00 47 1010.6
20260830051330 73 148 0.0 0.0 0.00 0.00 0.00 47 1010.5
20260830050819 73 148 0.0 0.0 0.00 0.00 0.00 46 1010.6
20260830050327 73 148 0.0 0.0 0.00 0.00 0.00 45 1010.6
20260830045819 73 148 0.0 0.0 0.00 0.00 0.00 45 1010.7
20260830045331 74 148 0.0 0.0 0.00 0.00 0.00 44 1010.6
20260830044819 74 145 0.0 0.0 0.00 0.00 0.00 43 1010.5
20260830044328 74 145 0.0 0.0 0.00 0.00 0.00 42 1010.5
20260830043817 74 145 0.0 0.0 0.00 0.00 0.00 42 1010.5
20260830043329 74 145 0.0 0.0 0.00 0.00 0.00 42 1010.3
20260830042817 75 144 0.0 0.0 0.00 0.00 0.00 41 1010.3
20260830042329 75 144 0.0 0.0 0.00 0.00 0.00 41 1010.4
20260830041819 75 144 0.0 0.0 0.00 0.00 0.00 40 1010.4
20260830041333 76 144 0.0 0.0 0.00 0.00 0.00 39 1010.3
20260830040822 76 240 0.0 0.0 0.00 0.00 0.00 38 1010.3
20260830040331 77 240 0.0 0.0 0.00 0.00 0.00 38 1010.2
20260830035822 77 240 0.0 0.0 0.00 0.00 0.00 37 1009.8
20260830035330 78 240 0.0 0.0 0.00 0.00 0.00 36 1009.8
20260830034819 78 240 0.0 0.0 0.00 0.00 0.00 34 1009.7
20260830034328 78 240 0.0 0.0 0.00 0.00 0.00 34 1009.8
20260830033818 79 240 0.0 0.0 0.00 0.00 0.00 34 1009.5
20260830033327 79 240 0.0 0.0 0.00 0.00 0.00 33 1009.6
20260830032819 79 240 0.0 0.0 0.00 0.00 0.00 32 1009.6
20260830032330 79 240 0.0 0.0 0.00 0.00 0.00 32 1009.4
20260830031819 80 240 0.0 0.0 0.00 0.00 0.00 31 1009.1
20260830031329 80 240 0.0 0.0 0.00 0.00 0.00 30 1009.1
20260830030820 80 236 0.0 0.0 0.00 0.00 0.00 29 1009.1